GEFSMW_prec_meanprecacc_132.txt.gz
Total_Precipitation_Accumulation
0.16 0.14 0.14 0.17 0.20 0.25 0.31 0.37 0.54 0.70 0.86 0.98 1.13 1.38 1.54 1.64 1.63 1.63 1.70 1.62 1.43 1.52 1.63 1.59 1.80 1.87 1.84 1.83 1.76 1.86 1.87 1.59 1.43 1.65 1.60 1.19 0.91 0.81 0.82 0.82 0.81 0.81 0.78
0.08 0.06 0.07 0.10 0.12 0.16 0.22 0.30 0.44 0.67 0.92 1.15 1.33 1.52 1.84 2.00 2.00 2.06 2.01 1.96 1.84 1.86 1.79 1.86 2.06 2.11 2.20 2.28 2.12 2.22 2.27 1.95 1.65 1.99 2.35 1.85 1.44 0.91 0.72 0.79 0.85 0.90 0.88
0.07 0.06 0.05 0.06 0.07 0.09 0.14 0.21 0.34 0.57 0.88 1.19 1.45 1.64 1.88 2.14 2.24 2.15 2.10 2.13 2.21 2.26 2.14 2.09 2.22 2.23 2.29 2.45 2.48 2.42 2.46 2.35 2.06 2.03 2.41 2.22 1.88 1.48 0.92 0.80 0.86 0.96 0.99
0.10 0.09 0.07 0.06 0.07 0.10 0.13 0.17 0.32 0.48 0.72 0.99 1.32 1.57 1.84 2.15 2.22 2.20 2.17 2.21 2.33 2.42 2.37 2.31 2.38 2.37 2.32 2.41 2.48 2.47 2.64 2.78 2.49 2.26 2.03 1.90 1.89 1.86 1.42 1.00 0.91 1.02 1.08
0.15 0.13 0.11 0.11 0.12 0.15 0.18 0.24 0.38 0.53 0.74 0.98 1.30 1.63 1.82 1.99 2.19 2.20 2.11 2.05 2.11 2.13 2.11 2.22 2.37 2.37 2.34 2.35 2.51 2.63 2.79 2.74 2.64 2.49 2.34 2.15 1.95 1.60 1.63 1.50 1.24 1.17 1.07
0.15 0.17 0.21 0.22 0.22 0.24 0.30 0.38 0.50 0.72 0.87 0.97 1.12 1.29 1.50 1.78 1.92 2.02 2.06 2.07 2.06 1.94 1.86 1.95 2.05 2.13 2.18 2.17 2.21 2.36 2.50 2.65 2.77 2.68 2.50 2.36 2.21 2.01 1.87 1.58 1.43 1.47 1.30
0.26 0.33 0.43 0.40 0.37 0.40 0.49 0.56 0.63 0.73 0.79 0.78 0.87 1.00 1.16 1.38 1.52 1.61 1.80 1.87 1.91 1.85 1.80 1.76 1.84 1.91 1.95 2.06 2.21 2.19 2.21 2.37 2.55 2.54 2.47 2.44 2.21 2.09 2.12 1.94 1.61 1.52 1.37
0.39 0.54 0.66 0.70 0.64 0.62 0.64 0.62 0.63 0.60 0.62 0.66 0.73 0.80 0.87 1.01 1.13 1.21 1.37 1.49 1.49 1.47 1.45 1.50 1.60 1.75 1.85 1.95 2.06 2.09 2.05 2.12 2.18 2.22 2.30 2.35 2.24 2.02 1.95 1.97 2.05 1.79 1.52
0.57 0.73 0.86 0.93 0.87 0.79 0.72 0.68 0.68 0.65 0.58 0.60 0.69 0.75 0.80 0.81 0.85 0.89 0.88 0.97 1.05 1.08 1.13 1.18 1.32 1.52 1.65 1.71 1.81 1.93 1.94 1.98 1.97 2.03 2.09 2.07 2.10 1.97 1.82 1.78 1.85 1.93 1.73
0.80 0.91 0.99 0.97 0.96 1.00 0.94 0.77 0.71 0.71 0.66 0.73 0.75 0.72 0.71 0.69 0.67 0.71 0.77 0.78 0.86 0.97 1.06 1.08 1.15 1.26 1.36 1.47 1.64 1.77 1.84 1.86 1.81 1.80 1.86 1.88 1.93 1.95 1.93 1.90 1.85 1.80 1.73
1.00 1.02 1.08 1.01 0.89 0.89 0.87 0.85 0.79 0.74 0.75 0.80 0.80 0.70 0.67 0.67 0.67 0.65 0.67 0.76 0.85 0.95 1.00 1.05 1.10 1.13 1.23 1.28 1.39 1.53 1.64 1.65 1.64 1.56 1.60 1.71 1.76 1.92 1.96 1.93 1.86 1.84 1.76
0.95 0.98 1.04 0.97 0.81 0.77 0.68 0.71 0.79 0.79 0.85 0.86 0.79 0.71 0.71 0.74 0.79 0.77 0.70 0.71 0.77 0.79 0.90 1.04 1.03 1.04 1.09 1.17 1.27 1.37 1.41 1.47 1.42 1.33 1.33 1.45 1.54 1.67 1.80 1.90 1.81 1.81 1.76
0.73 0.72 0.73 0.80 0.76 0.72 0.65 0.70 0.76 0.81 0.85 0.86 0.84 0.76 0.66 0.69 0.75 0.75 0.68 0.65 0.70 0.74 0.88 1.02 1.14 1.06 0.97 1.05 1.14 1.20 1.22 1.22 1.16 1.13 1.13 1.18 1.25 1.36 1.50 1.64 1.73 1.73 1.68
0.52 0.50 0.46 0.52 0.55 0.57 0.62 0.66 0.77 0.89 0.93 0.91 0.85 0.82 0.76 0.78 0.73 0.64 0.61 0.63 0.63 0.61 0.68 0.82 0.94 0.99 0.95 0.90 0.91 0.96 1.11 1.10 1.00 0.91 0.90 0.93 0.95 1.03 1.17 1.31 1.47 1.61 1.73
0.37 0.35 0.32 0.32 0.34 0.37 0.45 0.52 0.65 0.81 0.93 0.97 0.92 0.85 0.80 0.70 0.63 0.57 0.51 0.52 0.48 0.47 0.54 0.70 0.88 0.94 0.94 0.98 0.97 0.90 0.93 0.98 0.98 0.91 0.82 0.76 0.74 0.82 0.91 1.02 1.26 1.45 1.60
0.27 0.24 0.24 0.21 0.23 0.29 0.36 0.36 0.48 0.63 0.74 0.79 0.80 0.81 0.77 0.62 0.54 0.48 0.41 0.40 0.41 0.42 0.45 0.53 0.69 0.85 0.84 0.99 1.04 0.98 0.90 0.90 0.88 0.88 0.88 0.87 0.81 0.70 0.64 0.68 0.85 1.08 1.28
0.23 0.21 0.20 0.21 0.23 0.30 0.31 0.32 0.41 0.52 0.57 0.61 0.64 0.66 0.61 0.49 0.43 0.35 0.31 0.34 0.36 0.38 0.41 0.47 0.59 0.74 0.89 0.92 0.83 0.92 0.92 0.89 0.89 0.86 0.85 0.89 0.88 0.90 0.78 0.71 0.69 0.74 0.90
0.16 0.21 0.18 0.17 0.19 0.24 0.29 0.37 0.40 0.41 0.41 0.45 0.49 0.47 0.47 0.43 0.35 0.28 0.28 0.30 0.34 0.37 0.39 0.43 0.49 0.57 0.76 0.81 0.72 0.90 0.93 0.94 0.92 0.91 0.92 0.94 0.98 0.95 1.03 1.00 0.90 0.85 0.86
0.07 0.10 0.09 0.09 0.10 0.10 0.11 0.14 0.17 0.19 0.23 0.30 0.36 0.40 0.40 0.37 0.31 0.27 0.33 0.40 0.40 0.39 0.38 0.38 0.41 0.44 0.53 0.62 0.60 0.74 0.88 0.97 0.96 0.86 0.87 0.91 0.94 1.13 1.17 1.07 1.05 0.98 0.94
0.02 0.03 0.03 0.03 0.03 0.02 0.02 0.03 0.05 0.09 0.13 0.19 0.24 0.28 0.31 0.34 0.38 0.46 0.54 0.55 0.52 0.46 0.41 0.39 0.37 0.40 0.42 0.55 0.45 0.57 0.74 0.90 0.99 0.92 0.89 1.04 1.00 1.01 0.97 0.92 1.11 1.08 0.98
0.01 0.01 0.01 0.01 0.00 0.00 0.00 0.00 0.01 0.02 0.02 0.04 0.10 0.18 0.29 0.35 0.44 0.56 0.59 0.58 0.52 0.44 0.40 0.38 0.35 0.36 0.45 0.60 0.54 0.60 0.70 0.82 0.89 0.93 0.95 0.93 1.01 0.83 0.78 0.83 0.97 1.11 1.05
0.01 0.00 0.00 0.00 0.00 0.00 0.00 0.00 0.00 0.00 0.01 0.03 0.07 0.13 0.20 0.29 0.42 0.51 0.50 0.50 0.49 0.46 0.42 0.43 0.40 0.42 0.53 0.60 0.60 0.60 0.65 0.72 0.79 0.82 0.75 0.74 0.80 0.66 0.61 0.60 0.73 0.90 0.91
0.01 0.00 0.00 0.00 0.00 0.00 0.00 0.00 0.00 0.00 0.00 0.01 0.02 0.06 0.11 0.22 0.36 0.39 0.39 0.42 0.45 0.44 0.43 0.41 0.39 0.39 0.46 0.56 0.67 0.56 0.49 0.47 0.56 0.62 0.62 0.54 0.51 0.50 0.47 0.49 0.58 0.64 0.77
0.01 0.00 0.00 0.00 0.00 0.00 0.00 0.00 0.00 0.00 0.00 0.00 0.00 0.01 0.02 0.05 0.10 0.15 0.20 0.26 0.32 0.33 0.32 0.35 0.39 0.42 0.42 0.42 0.48 0.50 0.46 0.40 0.40 0.40 0.34 0.33 0.35 0.42 0.45 0.45 0.46 0.52 0.70
0.01 0.00 0.00 0.00 0.00 0.00 0.00 0.00 0.00 0.00 0.00 0.00 0.00 0.01 0.02 0.03 0.04 0.06 0.09 0.12 0.15 0.19 0.25 0.30 0.34 0.34 0.38 0.38 0.41 0.42 0.42 0.47 0.50 0.52 0.44 0.38 0.36 0.38 0.42 0.45 0.50 0.61 0.70
0.01 0.01 0.00 0.00 0.00 0.00 0.00 0.00 0.00 0.00 0.00 0.00 0.00 0.00 0.01 0.01 0.01 0.02 0.03 0.04 0.06 0.09 0.12 0.15 0.18 0.18 0.24 0.31 0.33 0.35 0.37 0.40 0.46 0.51 0.52 0.51 0.52 0.53 0.51 0.49 0.46 0.47 0.54

GEFSMW_prec_meanprecacc_138.txt.gz
Total_Precipitation_Accumulation
0.16 0.14 0.14 0.17 0.20 0.25 0.31 0.37 0.54 0.70 0.86 0.98 1.13 1.38 1.54 1.64 1.63 1.63 1.70 1.62 1.43 1.52 1.63 1.60 1.81 1.87 1.84 1.84 1.77 1.88 1.88 1.61 1.45 1.68 1.63 1.22 0.95 0.84 0.85 0.88 0.89 0.89 0.86
0.08 0.06 0.07 0.10 0.12 0.16 0.22 0.30 0.44 0.67 0.92 1.15 1.33 1.52 1.84 2.00 2.00 2.06 2.01 1.96 1.85 1.86 1.79 1.87 2.07 2.11 2.21 2.30 2.13 2.24 2.29 1.97 1.67 2.02 2.40 1.90 1.48 0.95 0.77 0.85 0.92 0.98 0.97
0.07 0.06 0.05 0.06 0.07 0.09 0.14 0.21 0.34 0.57 0.88 1.19 1.45 1.64 1.88 2.14 2.24 2.15 2.10 2.13 2.21 2.26 2.14 2.10 2.22 2.23 2.30 2.47 2.50 2.44 2.50 2.39 2.09 2.06 2.44 2.27 1.94 1.52 0.96 0.85 0.92 1.03 1.06
0.10 0.09 0.07 0.06 0.07 0.10 0.13 0.17 0.32 0.48 0.72 0.99 1.32 1.57 1.84 2.15 2.22 2.20 2.17 2.21 2.33 2.42 2.37 2.32 2.38 2.38 2.32 2.43 2.51 2.49 2.67 2.81 2.52 2.28 2.05 1.94 1.93 1.90 1.46 1.04 0.96 1.08 1.14
0.15 0.13 0.11 0.11 0.12 0.15 0.18 0.25 0.38 0.54 0.74 0.98 1.30 1.63 1.82 1.99 2.19 2.20 2.11 2.05 2.11 2.13 2.12 2.22 2.38 2.38 2.35 2.36 2.53 2.64 2.81 2.76 2.67 2.51 2.37 2.19 1.99 1.64 1.68 1.55 1.28 1.23 1.13
0.15 0.17 0.21 0.22 0.22 0.24 0.30 0.38 0.51 0.72 0.87 0.97 1.12 1.29 1.50 1.78 1.92 2.02 2.06 2.07 2.06 1.94 1.87 1.96 2.06 2.15 2.20 2.18 2.23 2.38 2.52 2.67 2.80 2.72 2.53 2.39 2.25 2.05 1.91 1.62 1.46 1.52 1.35
0.26 0.33 0.43 0.40 0.37 0.40 0.49 0.56 0.63 0.74 0.79 0.78 0.87 1.00 1.16 1.38 1.52 1.61 1.80 1.87 1.91 1.86 1.80 1.77 1.85 1.92 1.96 2.07 2.23 2.21 2.22 2.39 2.58 2.57 2.49 2.46 2.24 2.11 2.15 1.98 1.64 1.56 1.44
0.39 0.54 0.66 0.70 0.64 0.62 0.64 0.62 0.63 0.60 0.62 0.66 0.73 0.80 0.87 1.01 1.13 1.21 1.37 1.49 1.49 1.47 1.45 1.50 1.61 1.76 1.86 1.95 2.08 2.11 2.07 2.15 2.21 2.23 2.32 2.38 2.26 2.04 1.98 2.00 2.08 1.82 1.57
0.57 0.73 0.86 0.93 0.88 0.79 0.72 0.68 0.68 0.65 0.58 0.61 0.69 0.75 0.80 0.82 0.85 0.89 0.88 0.97 1.05 1.08 1.14 1.19 1.32 1.52 1.66 1.73 1.82 1.95 1.95 2.00 2.00 2.06 2.12 2.11 2.14 1.99 1.84 1.81 1.89 1.98 1.77
0.80 0.91 0.99 0.98 0.96 1.00 0.94 0.77 0.71 0.71 0.66 0.73 0.75 0.72 0.71 0.69 0.67 0.71 0.77 0.78 0.87 0.97 1.07 1.08 1.16 1.27 1.37 1.48 1.66 1.79 1.86 1.88 1.84 1.83 1.89 1.92 1.97 1.99 1.96 1.92 1.89 1.84 1.79
1.00 1.02 1.08 1.02 0.89 0.89 0.87 0.85 0.79 0.74 0.75 0.80 0.80 0.70 0.67 0.67 0.67 0.65 0.67 0.76 0.85 0.95 1.00 1.05 1.10 1.14 1.24 1.29 1.40 1.53 1.67 1.69 1.69 1.60 1.63 1.73 1.79 1.96 1.99 1.96 1.90 1.88 1.80
0.95 0.98 1.05 0.97 0.81 0.77 0.68 0.72 0.79 0.80 0.85 0.86 0.80 0.71 0.71 0.74 0.79 0.77 0.70 0.71 0.77 0.79 0.90 1.04 1.03 1.04 1.10 1.18 1.28 1.38 1.42 1.51 1.47 1.37 1.37 1.49 1.57 1.71 1.83 1.93 1.85 1.85 1.80
0.73 0.72 0.74 0.80 0.76 0.72 0.65 0.70 0.76 0.81 0.85 0.86 0.84 0.76 0.66 0.69 0.75 0.75 0.68 0.65 0.70 0.74 0.88 1.02 1.14 1.06 0.97 1.05 1.15 1.21 1.23 1.24 1.19 1.16 1.17 1.22 1.29 1.41 1.54 1.66 1.76 1.76 1.71
0.52 0.50 0.46 0.52 0.55 0.57 0.62 0.66 0.77 0.89 0.93 0.91 0.85 0.82 0.76 0.78 0.73 0.64 0.61 0.63 0.63 0.61 0.68 0.82 0.94 0.99 0.95 0.90 0.91 0.96 1.11 1.11 1.02 0.93 0.92 0.95 0.97 1.07 1.22 1.35 1.49 1.63 1.75
0.37 0.35 0.32 0.32 0.34 0.37 0.45 0.52 0.65 0.81 0.93 0.97 0.92 0.85 0.80 0.70 0.63 0.57 0.51 0.52 0.48 0.47 0.54 0.70 0.88 0.94 0.94 0.98 0.97 0.90 0.93 0.98 0.99 0.91 0.83 0.77 0.76 0.85 0.94 1.04 1.28 1.47 1.62
0.27 0.24 0.24 0.21 0.23 0.29 0.36 0.36 0.48 0.63 0.74 0.79 0.80 0.81 0.77 0.62 0.54 0.48 0.41 0.40 0.41 0.42 0.45 0.53 0.69 0.85 0.84 0.99 1.04 0.98 0.90 0.90 0.89 0.88 0.89 0.88 0.83 0.72 0.66 0.70 0.87 1.10 1.30
0.23 0.21 0.20 0.21 0.23 0.30 0.31 0.32 0.41 0.52 0.57 0.61 0.64 0.66 0.61 0.49 0.43 0.35 0.31 0.34 0.36 0.38 0.41 0.47 0.59 0.74 0.89 0.92 0.83 0.92 0.93 0.89 0.89 0.86 0.86 0.90 0.89 0.92 0.81 0.73 0.71 0.75 0.92
0.16 0.21 0.18 0.17 0.19 0.24 0.29 0.37 0.40 0.41 0.41 0.45 0.49 0.47 0.47 0.43 0.35 0.28 0.28 0.30 0.34 0.37 0.39 0.43 0.49 0.57 0.76 0.81 0.72 0.90 0.94 0.94 0.93 0.91 0.93 0.95 0.98 0.96 1.05 1.02 0.92 0.87 0.87
0.07 0.10 0.09 0.09 0.10 0.10 0.11 0.14 0.17 0.19 0.23 0.30 0.36 0.40 0.40 0.37 0.31 0.27 0.33 0.40 0.40 0.39 0.38 0.38 0.41 0.44 0.53 0.62 0.60 0.74 0.88 0.98 0.97 0.86 0.87 0.92 0.95 1.14 1.18 1.09 1.06 0.99 0.95
0.02 0.03 0.03 0.03 0.03 0.02 0.02 0.03 0.05 0.09 0.13 0.19 0.24 0.28 0.31 0.34 0.38 0.46 0.54 0.56 0.52 0.46 0.41 0.39 0.38 0.40 0.42 0.55 0.45 0.57 0.74 0.90 0.99 0.93 0.89 1.05 1.01 1.02 0.97 0.93 1.11 1.09 0.98
0.01 0.01 0.01 0.01 0.01 0.00 0.00 0.00 0.01 0.02 0.02 0.04 0.10 0.18 0.29 0.35 0.44 0.56 0.59 0.58 0.52 0.44 0.40 0.38 0.36 0.36 0.45 0.60 0.54 0.61 0.70 0.82 0.90 0.93 0.95 0.93 1.01 0.84 0.79 0.83 0.98 1.12 1.05
0.01 0.00 0.00 0.00 0.00 0.00 0.00 0.00 0.00 0.00 0.01 0.03 0.07 0.13 0.20 0.29 0.42 0.51 0.51 0.50 0.49 0.46 0.42 0.43 0.40 0.42 0.53 0.60 0.61 0.61 0.65 0.72 0.80 0.82 0.75 0.74 0.81 0.67 0.62 0.61 0.74 0.91 0.92
0.01 0.00 0.00 0.00 0.00 0.00 0.00 0.00 0.00 0.00 0.00 0.01 0.02 0.06 0.11 0.22 0.36 0.39 0.39 0.42 0.45 0.44 0.43 0.41 0.39 0.39 0.46 0.57 0.67 0.57 0.49 0.48 0.56 0.62 0.62 0.55 0.51 0.51 0.47 0.51 0.60 0.66 0.79
0.01 0.00 0.00 0.00 0.00 0.00 0.00 0.00 0.00 0.00 0.00 0.00 0.00 0.01 0.02 0.05 0.10 0.15 0.20 0.26 0.32 0.33 0.32 0.35 0.39 0.42 0.42 0.42 0.48 0.50 0.46 0.41 0.41 0.41 0.35 0.33 0.36 0.43 0.45 0.46 0.48 0.54 0.74
0.01 0.00 0.00 0.00 0.00 0.00 0.00 0.00 0.00 0.00 0.00 0.00 0.00 0.01 0.02 0.03 0.04 0.06 0.09 0.13 0.16 0.19 0.25 0.30 0.34 0.35 0.39 0.38 0.41 0.42 0.43 0.48 0.51 0.52 0.45 0.38 0.37 0.38 0.42 0.45 0.50 0.62 0.72
0.01 0.01 0.00 0.00 0.00 0.00 0.00 0.00 0.00 0.00 0.00 0.00 0.00 0.00 0.01 0.01 0.01 0.02 0.03 0.04 0.06 0.09 0.12 0.15 0.18 0.18 0.24 0.31 0.33 0.36 0.38 0.40 0.47 0.51 0.52 0.52 0.53 0.53 0.52 0.50 0.47 0.48 0.56

GEFSMW_prec_meanprecacc_144.txt.gz
Total_Precipitation_Accumulation
0.17 0.14 0.14 0.17 0.20 0.25 0.31 0.37 0.54 0.70 0.86 0.98 1.13 1.38 1.54 1.64 1.63 1.63 1.70 1.62 1.44 1.52 1.63 1.60 1.81 1.89 1.86 1.85 1.80 1.91 1.93 1.66 1.48 1.72 1.68 1.27 1.00 0.89 0.90 0.94 0.96 0.97 0.95
0.09 0.08 0.07 0.10 0.12 0.16 0.22 0.30 0.44 0.67 0.92 1.15 1.33 1.52 1.84 2.00 2.00 2.06 2.01 1.96 1.85 1.87 1.79 1.87 2.08 2.13 2.23 2.32 2.16 2.27 2.33 2.02 1.73 2.08 2.47 1.97 1.56 1.01 0.81 0.90 0.98 1.05 1.05
0.07 0.06 0.05 0.06 0.07 0.09 0.14 0.21 0.34 0.57 0.88 1.19 1.45 1.64 1.88 2.14 2.24 2.15 2.10 2.13 2.21 2.26 2.15 2.11 2.23 2.24 2.32 2.51 2.54 2.48 2.55 2.46 2.15 2.11 2.50 2.35 2.02 1.59 1.02 0.90 0.98 1.09 1.13
0.11 0.09 0.07 0.06 0.07 0.10 0.13 0.17 0.32 0.48 0.72 0.99 1.32 1.57 1.84 2.15 2.22 2.20 2.17 2.21 2.33 2.42 2.38 2.33 2.39 2.39 2.35 2.47 2.55 2.53 2.72 2.87 2.58 2.33 2.10 2.01 2.01 1.98 1.53 1.11 1.04 1.16 1.21
0.15 0.13 0.11 0.11 0.13 0.15 0.18 0.25 0.38 0.54 0.74 0.98 1.30 1.63 1.82 1.99 2.19 2.20 2.11 2.05 2.12 2.14 2.12 2.24 2.39 2.41 2.38 2.39 2.57 2.68 2.85 2.83 2.73 2.57 2.43 2.24 2.05 1.71 1.76 1.62 1.34 1.29 1.19
0.15 0.17 0.21 0.23 0.23 0.25 0.30 0.38 0.51 0.72 0.87 0.97 1.12 1.29 1.50 1.78 1.92 2.02 2.06 2.07 2.07 1.95 1.87 1.98 2.08 2.18 2.23 2.21 2.26 2.42 2.55 2.72 2.85 2.77 2.58 2.46 2.32 2.12 1.99 1.71 1.53 1.57 1.41
0.26 0.33 0.43 0.41 0.38 0.41 0.50 0.56 0.63 0.74 0.79 0.78 0.87 1.00 1.16 1.38 1.52 1.61 1.81 1.88 1.92 1.86 1.81 1.79 1.87 1.94 1.99 2.09 2.25 2.24 2.27 2.44 2.63 2.62 2.54 2.52 2.30 2.18 2.21 2.05 1.71 1.61 1.48
0.40 0.54 0.66 0.71 0.65 0.63 0.65 0.62 0.63 0.60 0.62 0.66 0.73 0.80 0.87 1.01 1.13 1.21 1.37 1.50 1.50 1.47 1.46 1.52 1.62 1.78 1.88 1.98 2.11 2.16 2.12 2.19 2.25 2.26 2.35 2.42 2.31 2.10 2.04 2.08 2.14 1.88 1.62
0.57 0.73 0.86 0.93 0.88 0.80 0.73 0.69 0.68 0.65 0.58 0.61 0.69 0.75 0.80 0.82 0.85 0.89 0.88 0.97 1.06 1.09 1.14 1.20 1.33 1.54 1.68 1.75 1.86 2.00 1.99 2.04 2.04 2.10 2.16 2.16 2.20 2.04 1.89 1.86 1.94 2.04 1.82
0.80 0.91 0.99 0.98 0.97 1.01 0.95 0.78 0.71 0.72 0.66 0.74 0.75 0.72 0.71 0.69 0.67 0.71 0.77 0.78 0.87 0.98 1.07 1.09 1.16 1.29 1.39 1.49 1.67 1.82 1.89 1.92 1.89 1.87 1.94 1.98 2.03 2.04 2.01 1.96 1.94 1.90 1.85
1.00 1.02 1.08 1.02 0.89 0.89 0.87 0.85 0.80 0.74 0.75 0.80 0.80 0.70 0.67 0.67 0.67 0.65 0.67 0.76 0.85 0.95 1.00 1.06 1.11 1.14 1.24 1.29 1.41 1.56 1.69 1.72 1.73 1.63 1.67 1.78 1.84 2.01 2.04 2.00 1.95 1.93 1.85
0.95 0.98 1.05 0.97 0.81 0.77 0.68 0.72 0.79 0.80 0.86 0.86 0.80 0.71 0.71 0.74 0.79 0.77 0.70 0.71 0.77 0.79 0.90 1.04 1.03 1.04 1.10 1.18 1.29 1.38 1.44 1.53 1.49 1.41 1.43 1.54 1.62 1.76 1.89 1.98 1.89 1.89 1.84
0.73 0.72 0.74 0.80 0.76 0.72 0.65 0.70 0.76 0.81 0.85 0.86 0.84 0.76 0.66 0.69 0.75 0.75 0.68 0.65 0.70 0.74 0.88 1.02 1.14 1.07 0.97 1.06 1.15 1.21 1.24 1.25 1.20 1.19 1.21 1.26 1.35 1.48 1.60 1.71 1.81 1.81 1.75
0.52 0.50 0.46 0.52 0.55 0.57 0.62 0.66 0.77 0.89 0.93 0.91 0.85 0.82 0.76 0.78 0.73 0.64 0.61 0.63 0.63 0.61 0.68 0.83 0.94 0.99 0.95 0.90 0.91 0.97 1.12 1.12 1.04 0.95 0.94 0.96 0.99 1.11 1.26 1.38 1.53 1.68 1.80
0.37 0.35 0.32 0.32 0.34 0.37 0.45 0.52 0.66 0.81 0.93 0.97 0.92 0.85 0.80 0.70 0.63 0.57 0.51 0.52 0.48 0.48 0.54 0.70 0.88 0.94 0.94 0.98 0.97 0.90 0.93 0.99 1.01 0.93 0.84 0.78 0.77 0.86 0.95 1.07 1.32 1.52 1.68
0.27 0.24 0.24 0.21 0.23 0.30 0.36 0.37 0.48 0.63 0.74 0.79 0.80 0.81 0.77 0.62 0.54 0.48 0.41 0.40 0.41 0.42 0.45 0.53 0.69 0.85 0.84 0.99 1.04 0.98 0.90 0.90 0.90 0.90 0.90 0.89 0.83 0.72 0.67 0.73 0.89 1.13 1.35
0.23 0.21 0.20 0.21 0.23 0.30 0.32 0.33 0.42 0.53 0.57 0.61 0.64 0.66 0.61 0.49 0.43 0.35 0.31 0.34 0.36 0.38 0.41 0.47 0.59 0.74 0.89 0.92 0.83 0.92 0.93 0.89 0.90 0.87 0.87 0.90 0.89 0.93 0.83 0.76 0.73 0.77 0.94
0.16 0.21 0.18 0.17 0.19 0.24 0.29 0.37 0.40 0.41 0.42 0.46 0.49 0.47 0.47 0.43 0.35 0.28 0.28 0.30 0.34 0.37 0.39 0.43 0.49 0.57 0.76 0.81 0.72 0.90 0.94 0.95 0.94 0.92 0.94 0.98 1.01 0.98 1.08 1.05 0.96 0.89 0.88
0.07 0.10 0.09 0.09 0.10 0.10 0.11 0.14 0.17 0.20 0.23 0.31 0.37 0.40 0.40 0.37 0.31 0.27 0.33 0.40 0.40 0.39 0.38 0.39 0.41 0.44 0.53 0.62 0.60 0.74 0.88 0.98 0.97 0.88 0.89 0.94 0.98 1.17 1.20 1.12 1.10 1.03 0.97
0.02 0.03 0.03 0.03 0.03 0.03 0.03 0.03 0.05 0.09 0.13 0.20 0.24 0.28 0.31 0.34 0.38 0.46 0.54 0.56 0.52 0.46 0.41 0.39 0.38 0.40 0.43 0.56 0.45 0.57 0.74 0.91 1.00 0.94 0.90 1.05 1.02 1.03 0.99 0.95 1.14 1.12 1.02
0.01 0.01 0.01 0.01 0.01 0.00 0.00 0.01 0.02 0.02 0.02 0.04 0.10 0.18 0.29 0.35 0.44 0.56 0.59 0.58 0.52 0.44 0.40 0.38 0.36 0.36 0.45 0.60 0.54 0.61 0.70 0.83 0.91 0.94 0.96 0.94 1.02 0.85 0.80 0.85 1.00 1.14 1.07
0.01 0.00 0.00 0.00 0.00 0.00 0.00 0.00 0.00 0.00 0.01 0.03 0.07 0.13 0.20 0.29 0.42 0.51 0.51 0.50 0.49 0.46 0.42 0.43 0.40 0.42 0.53 0.60 0.61 0.61 0.65 0.73 0.80 0.83 0.76 0.75 0.82 0.68 0.63 0.61 0.75 0.92 0.93
0.01 0.00 0.00 0.00 0.00 0.00 0.00 0.00 0.00 0.00 0.00 0.01 0.02 0.06 0.11 0.22 0.36 0.39 0.39 0.43 0.45 0.44 0.43 0.42 0.40 0.39 0.47 0.57 0.67 0.57 0.50 0.48 0.56 0.63 0.63 0.55 0.52 0.52 0.48 0.51 0.61 0.67 0.80
0.01 0.00 0.00 0.00 0.00 0.00 0.00 0.00 0.00 0.00 0.00 0.00 0.00 0.01 0.02 0.05 0.10 0.15 0.20 0.26 0.32 0.33 0.32 0.35 0.39 0.42 0.42 0.43 0.48 0.51 0.47 0.41 0.41 0.41 0.35 0.34 0.37 0.43 0.46 0.46 0.48 0.54 0.75
0.01 0.00 0.00 0.00 0.00 0.00 0.00 0.00 0.00 0.00 0.00 0.00 0.00 0.01 0.02 0.03 0.04 0.06 0.09 0.13 0.16 0.19 0.25 0.31 0.34 0.35 0.39 0.39 0.42 0.43 0.43 0.48 0.52 0.53 0.46 0.39 0.38 0.39 0.43 0.46 0.51 0.63 0.73
0.01 0.01 0.00 0.00 0.00 0.00 0.00 0.00 0.00 0.00 0.00 0.00 0.00 0.00 0.01 0.01 0.01 0.02 0.03 0.04 0.06 0.09 0.12 0.15 0.18 0.19 0.25 0.32 0.35 0.37 0.39 0.41 0.48 0.52 0.54 0.53 0.54 0.54 0.53 0.51 0.48 0.49 0.57

GEFSMW_prec_meanprecacc_150.txt.gz
Total_Precipitation_Accumulation
0.20 0.17 0.16 0.19 0.22 0.26 0.31 0.37 0.54 0.70 0.86 0.99 1.13 1.38 1.54 1.64 1.63 1.63 1.70 1.62 1.44 1.52 1.63 1.60 1.82 1.89 1.86 1.85 1.80 1.92 1.93 1.66 1.48 1.73 1.69 1.28 1.01 0.90 0.91 0.96 0.99 1.03 1.03
0.13 0.12 0.11 0.12 0.13 0.16 0.22 0.30 0.44 0.68 0.92 1.15 1.33 1.52 1.84 2.00 2.00 2.06 2.01 1.96 1.85 1.87 1.79 1.87 2.08 2.13 2.23 2.32 2.16 2.28 2.33 2.03 1.73 2.09 2.48 1.98 1.57 1.03 0.84 0.93 1.02 1.11 1.14
0.10 0.11 0.09 0.09 0.08 0.10 0.14 0.21 0.34 0.57 0.88 1.19 1.45 1.64 1.88 2.14 2.24 2.15 2.10 2.13 2.21 2.26 2.15 2.11 2.23 2.25 2.32 2.51 2.54 2.49 2.55 2.46 2.16 2.12 2.51 2.36 2.03 1.60 1.05 0.94 1.02 1.15 1.23
0.12 0.11 0.09 0.08 0.08 0.11 0.13 0.17 0.32 0.48 0.72 0.99 1.32 1.57 1.84 2.15 2.22 2.20 2.17 2.21 2.33 2.42 2.38 2.33 2.39 2.39 2.35 2.47 2.56 2.53 2.73 2.88 2.59 2.34 2.11 2.01 2.02 1.99 1.54 1.13 1.07 1.23 1.29
0.16 0.14 0.13 0.12 0.13 0.15 0.18 0.25 0.38 0.54 0.74 0.98 1.30 1.63 1.82 1.99 2.19 2.20 2.11 2.05 2.12 2.14 2.12 2.24 2.39 2.41 2.38 2.39 2.57 2.68 2.85 2.83 2.73 2.58 2.44 2.25 2.06 1.72 1.78 1.63 1.37 1.35 1.26
0.16 0.19 0.23 0.25 0.24 0.25 0.30 0.38 0.51 0.72 0.87 0.97 1.12 1.29 1.50 1.78 1.92 2.02 2.06 2.07 2.07 1.95 1.87 1.98 2.09 2.18 2.23 2.21 2.27 2.42 2.56 2.73 2.86 2.78 2.59 2.47 2.33 2.13 2.00 1.72 1.55 1.60 1.43
0.27 0.34 0.44 0.42 0.40 0.42 0.50 0.57 0.63 0.74 0.79 0.79 0.87 1.00 1.16 1.38 1.52 1.61 1.81 1.88 1.92 1.86 1.81 1.79 1.87 1.95 1.99 2.09 2.26 2.25 2.27 2.45 2.64 2.62 2.55 2.53 2.31 2.19 2.22 2.05 1.72 1.62 1.50
0.40 0.55 0.66 0.71 0.67 0.65 0.65 0.62 0.63 0.61 0.62 0.66 0.73 0.80 0.87 1.01 1.13 1.21 1.37 1.50 1.50 1.48 1.47 1.53 1.63 1.78 1.88 1.98 2.12 2.16 2.12 2.20 2.26 2.27 2.36 2.43 2.33 2.13 2.07 2.09 2.15 1.89 1.65
0.57 0.74 0.86 0.94 0.89 0.81 0.74 0.69 0.69 0.65 0.59 0.61 0.69 0.75 0.80 0.82 0.85 0.89 0.88 0.97 1.06 1.09 1.14 1.20 1.34 1.54 1.68 1.75 1.86 2.00 1.99 2.04 2.05 2.10 2.17 2.17 2.22 2.07 1.92 1.87 1.95 2.05 1.83
0.80 0.91 0.99 0.98 0.97 1.01 0.96 0.78 0.72 0.72 0.66 0.74 0.75 0.72 0.71 0.69 0.68 0.71 0.77 0.78 0.87 0.98 1.07 1.09 1.17 1.29 1.39 1.50 1.68 1.82 1.90 1.92 1.89 1.88 1.95 2.00 2.05 2.06 2.02 1.98 1.95 1.92 1.86
1.00 1.02 1.08 1.02 0.90 0.90 0.88 0.86 0.80 0.74 0.75 0.81 0.81 0.71 0.68 0.68 0.68 0.65 0.67 0.76 0.85 0.95 1.00 1.06 1.11 1.15 1.24 1.29 1.41 1.56 1.70 1.73 1.74 1.65 1.68 1.79 1.85 2.02 2.06 2.01 1.96 1.93 1.85
0.95 0.98 1.05 0.97 0.82 0.77 0.68 0.72 0.80 0.81 0.87 0.87 0.80 0.72 0.72 0.75 0.80 0.78 0.70 0.71 0.77 0.79 0.90 1.04 1.03 1.05 1.10 1.18 1.29 1.39 1.45 1.54 1.50 1.42 1.44 1.56 1.63 1.77 1.89 1.99 1.90 1.90 1.85
0.73 0.72 0.74 0.80 0.76 0.72 0.65 0.71 0.76 0.82 0.86 0.88 0.86 0.77 0.66 0.70 0.75 0.76 0.68 0.66 0.70 0.74 0.88 1.02 1.14 1.07 0.97 1.06 1.15 1.22 1.25 1.25 1.21 1.20 1.22 1.27 1.36 1.50 1.62 1.73 1.82 1.83 1.76
0.53 0.51 0.47 0.53 0.55 0.57 0.62 0.67 0.77 0.89 0.94 0.92 0.86 0.82 0.76 0.78 0.73 0.64 0.62 0.64 0.63 0.61 0.68 0.83 0.94 0.99 0.95 0.91 0.91 0.97 1.12 1.12 1.04 0.96 0.95 0.97 1.01 1.14 1.28 1.39 1.54 1.69 1.82
0.38 0.36 0.33 0.33 0.35 0.38 0.46 0.52 0.66 0.81 0.93 0.98 0.93 0.86 0.80 0.70 0.63 0.57 0.51 0.52 0.48 0.48 0.54 0.70 0.88 0.94 0.94 0.98 0.97 0.90 0.93 0.99 1.01 0.94 0.86 0.79 0.78 0.87 0.96 1.08 1.33 1.53 1.68
0.27 0.24 0.24 0.22 0.24 0.30 0.36 0.37 0.49 0.63 0.74 0.80 0.81 0.82 0.78 0.62 0.54 0.48 0.41 0.40 0.41 0.42 0.45 0.53 0.69 0.86 0.84 0.99 1.04 0.98 0.90 0.90 0.90 0.90 0.90 0.89 0.84 0.73 0.68 0.74 0.90 1.14 1.36
0.23 0.21 0.20 0.21 0.23 0.30 0.32 0.33 0.42 0.53 0.58 0.62 0.65 0.67 0.63 0.49 0.44 0.35 0.31 0.34 0.36 0.38 0.41 0.47 0.59 0.74 0.89 0.92 0.83 0.92 0.93 0.89 0.90 0.87 0.87 0.91 0.89 0.93 0.83 0.76 0.74 0.78 0.95
0.16 0.21 0.18 0.17 0.19 0.24 0.29 0.37 0.40 0.42 0.43 0.47 0.50 0.49 0.48 0.43 0.36 0.28 0.28 0.30 0.34 0.37 0.39 0.43 0.49 0.57 0.76 0.81 0.72 0.90 0.94 0.95 0.94 0.92 0.94 0.98 1.02 0.98 1.08 1.05 0.96 0.90 0.89
0.07 0.10 0.09 0.09 0.10 0.10 0.11 0.14 0.17 0.20 0.24 0.32 0.38 0.41 0.41 0.37 0.32 0.27 0.33 0.40 0.40 0.39 0.38 0.39 0.41 0.44 0.53 0.62 0.60 0.74 0.88 0.98 0.97 0.88 0.89 0.95 0.99 1.17 1.21 1.12 1.10 1.03 0.98
0.02 0.03 0.03 0.03 0.03 0.03 0.03 0.03 0.05 0.10 0.13 0.20 0.25 0.29 0.32 0.35 0.38 0.46 0.54 0.56 0.52 0.46 0.42 0.39 0.38 0.40 0.43 0.56 0.45 0.57 0.74 0.91 1.00 0.94 0.90 1.06 1.03 1.04 0.99 0.95 1.14 1.13 1.03
0.01 0.01 0.01 0.01 0.01 0.00 0.00 0.01 0.02 0.02 0.02 0.04 0.10 0.18 0.29 0.35 0.45 0.56 0.59 0.58 0.52 0.44 0.40 0.38 0.36 0.36 0.45 0.60 0.54 0.61 0.71 0.83 0.92 0.95 0.97 0.94 1.02 0.85 0.80 0.85 1.00 1.15 1.09
0.01 0.00 0.00 0.00 0.00 0.00 0.00 0.00 0.00 0.01 0.01 0.03 0.07 0.13 0.20 0.29 0.43 0.51 0.51 0.50 0.49 0.46 0.42 0.43 0.40 0.42 0.53 0.60 0.61 0.61 0.66 0.74 0.81 0.84 0.76 0.75 0.82 0.68 0.63 0.62 0.75 0.93 0.95
0.01 0.00 0.00 0.00 0.00 0.00 0.00 0.00 0.00 0.00 0.00 0.01 0.03 0.06 0.11 0.22 0.36 0.39 0.39 0.43 0.45 0.44 0.43 0.42 0.40 0.39 0.47 0.57 0.67 0.57 0.50 0.49 0.57 0.64 0.63 0.56 0.53 0.52 0.48 0.52 0.61 0.68 0.81
0.01 0.00 0.00 0.00 0.00 0.00 0.00 0.00 0.00 0.00 0.00 0.00 0.00 0.01 0.02 0.05 0.10 0.15 0.20 0.26 0.32 0.33 0.32 0.35 0.39 0.42 0.42 0.43 0.48 0.51 0.48 0.42 0.42 0.42 0.36 0.35 0.38 0.44 0.46 0.47 0.49 0.55 0.75
0.01 0.00 0.00 0.00 0.00 0.00 0.00 0.00 0.00 0.00 0.00 0.00 0.00 0.01 0.02 0.03 0.04 0.06 0.09 0.13 0.16 0.19 0.25 0.31 0.34 0.35 0.39 0.39 0.42 0.44 0.44 0.49 0.53 0.55 0.47 0.40 0.39 0.40 0.44 0.46 0.52 0.63 0.73
0.01 0.01 0.00 0.00 0.00 0.00 0.00 0.00 0.00 0.00 0.00 0.00 0.00 0.00 0.01 0.02 0.02 0.03 0.03 0.05 0.07 0.09 0.12 0.15 0.18 0.19 0.25 0.32 0.35 0.38 0.40 0.43 0.49 0.53 0.55 0.54 0.55 0.56 0.54 0.52 0.49 0.50 0.58

GEFSMW_prec_meanprecacc_156.txt.gz
Total_Precipitation_Accumulation
0.22 0.19 0.18 0.21 0.24 0.27 0.31 0.37 0.54 0.70 0.86 0.99 1.13 1.38 1.54 1.64 1.63 1.63 1.70 1.62 1.44 1.52 1.63 1.60 1.82 1.89 1.86 1.85 1.80 1.92 1.93 1.66 1.49 1.73 1.70 1.29 1.02 0.91 0.93 0.98 1.01 1.04 1.04
0.15 0.14 0.13 0.14 0.14 0.17 0.22 0.30 0.44 0.68 0.92 1.15 1.33 1.52 1.84 2.00 2.00 2.06 2.01 1.96 1.85 1.87 1.79 1.87 2.08 2.13 2.23 2.32 2.16 2.28 2.33 2.03 1.73 2.09 2.48 1.98 1.57 1.03 0.84 0.93 1.03 1.13 1.17
0.13 0.13 0.11 0.11 0.10 0.10 0.15 0.22 0.34 0.57 0.88 1.19 1.45 1.64 1.88 2.14 2.24 2.15 2.10 2.13 2.21 2.26 2.15 2.11 2.23 2.25 2.32 2.51 2.55 2.49 2.55 2.46 2.16 2.12 2.52 2.37 2.03 1.61 1.06 0.94 1.03 1.17 1.25
0.14 0.12 0.10 0.09 0.10 0.12 0.14 0.18 0.32 0.48 0.72 0.99 1.32 1.57 1.84 2.15 2.22 2.20 2.17 2.21 2.33 2.42 2.38 2.33 2.39 2.39 2.35 2.47 2.56 2.53 2.73 2.88 2.60 2.34 2.11 2.02 2.02 2.00 1.55 1.13 1.08 1.25 1.31
0.17 0.15 0.13 0.13 0.15 0.17 0.19 0.25 0.39 0.54 0.74 0.98 1.30 1.63 1.82 1.99 2.19 2.20 2.12 2.05 2.12 2.14 2.12 2.24 2.39 2.41 2.38 2.39 2.57 2.68 2.85 2.84 2.74 2.58 2.45 2.25 2.06 1.72 1.78 1.64 1.38 1.37 1.28
0.16 0.19 0.24 0.25 0.25 0.27 0.32 0.39 0.51 0.72 0.87 0.97 1.12 1.29 1.50 1.78 1.92 2.02 2.06 2.07 2.07 1.95 1.87 1.98 2.09 2.18 2.23 2.21 2.27 2.42 2.56 2.73 2.87 2.79 2.60 2.47 2.33 2.13 2.00 1.73 1.56 1.63 1.46
0.29 0.35 0.45 0.42 0.40 0.43 0.51 0.57 0.64 0.74 0.79 0.79 0.87 1.00 1.16 1.38 1.52 1.61 1.81 1.88 1.92 1.86 1.81 1.79 1.87 1.95 1.99 2.09 2.26 2.25 2.27 2.45 2.64 2.63 2.56 2.53 2.31 2.19 2.23 2.06 1.72 1.63 1.52
0.41 0.56 0.67 0.72 0.67 0.65 0.66 0.63 0.63 0.61 0.62 0.66 0.73 0.81 0.87 1.02 1.13 1.21 1.37 1.50 1.50 1.48 1.47 1.53 1.63 1.78 1.88 1.98 2.12 2.16 2.12 2.20 2.26 2.27 2.38 2.44 2.33 2.13 2.07 2.09 2.15 1.90 1.65
0.58 0.74 0.87 0.94 0.90 0.81 0.74 0.69 0.69 0.66 0.59 0.61 0.69 0.76 0.81 0.82 0.85 0.89 0.88 0.97 1.06 1.09 1.14 1.20 1.34 1.54 1.68 1.75 1.86 2.00 1.99 2.05 2.05 2.11 2.17 2.18 2.22 2.08 1.92 1.88 1.96 2.05 1.84
0.81 0.92 0.99 0.98 0.97 1.02 0.96 0.79 0.72 0.72 0.66 0.74 0.75 0.73 0.71 0.70 0.68 0.72 0.77 0.78 0.87 0.98 1.08 1.09 1.17 1.29 1.39 1.50 1.68 1.82 1.90 1.93 1.89 1.88 1.95 2.00 2.06 2.06 2.03 1.98 1.96 1.92 1.86
1.00 1.02 1.09 1.02 0.90 0.90 0.88 0.86 0.81 0.75 0.76 0.81 0.81 0.71 0.68 0.68 0.68 0.65 0.68 0.76 0.85 0.95 1.01 1.06 1.11 1.15 1.24 1.30 1.41 1.56 1.70 1.73 1.74 1.65 1.68 1.80 1.86 2.02 2.06 2.01 1.96 1.94 1.86
0.95 0.98 1.05 0.97 0.82 0.77 0.68 0.72 0.80 0.81 0.87 0.87 0.81 0.72 0.72 0.75 0.80 0.78 0.70 0.71 0.77 0.79 0.90 1.04 1.04 1.05 1.10 1.18 1.29 1.39 1.45 1.54 1.51 1.43 1.45 1.56 1.63 1.77 1.89 1.99 1.90 1.90 1.85
0.73 0.72 0.74 0.80 0.76 0.72 0.65 0.71 0.76 0.82 0.86 0.88 0.86 0.77 0.67 0.70 0.75 0.76 0.68 0.66 0.70 0.74 0.88 1.02 1.14 1.07 0.97 1.06 1.17 1.22 1.25 1.26 1.22 1.21 1.23 1.29 1.37 1.50 1.62 1.73 1.82 1.83 1.76
0.53 0.51 0.47 0.53 0.55 0.57 0.62 0.67 0.78 0.90 0.94 0.92 0.86 0.83 0.77 0.79 0.74 0.64 0.62 0.64 0.63 0.61 0.68 0.83 0.94 0.99 0.95 0.91 0.92 0.97 1.12 1.12 1.04 0.96 0.96 0.98 1.01 1.14 1.28 1.39 1.54 1.70 1.82
0.38 0.36 0.33 0.33 0.35 0.38 0.46 0.53 0.66 0.82 0.94 0.99 0.94 0.86 0.81 0.71 0.64 0.58 0.51 0.52 0.48 0.48 0.54 0.70 0.88 0.94 0.94 0.98 0.97 0.90 0.93 0.99 1.01 0.95 0.87 0.80 0.79 0.87 0.97 1.08 1.34 1.54 1.69
0.27 0.24 0.24 0.22 0.24 0.30 0.36 0.37 0.49 0.64 0.75 0.80 0.82 0.83 0.79 0.63 0.55 0.48 0.42 0.40 0.41 0.42 0.45 0.53 0.69 0.86 0.84 0.99 1.04 0.98 0.90 0.90 0.90 0.90 0.90 0.89 0.84 0.73 0.69 0.75 0.92 1.14 1.36
0.24 0.21 0.20 0.21 0.23 0.30 0.32 0.33 0.42 0.53 0.58 0.62 0.65 0.68 0.64 0.50 0.45 0.36 0.32 0.34 0.36 0.38 0.41 0.47 0.59 0.74 0.89 0.92 0.83 0.92 0.93 0.89 0.90 0.87 0.87 0.91 0.90 0.94 0.84 0.77 0.75 0.78 0.95
0.16 0.21 0.18 0.17 0.19 0.24 0.29 0.37 0.40 0.42 0.43 0.47 0.50 0.49 0.49 0.44 0.37 0.29 0.29 0.30 0.34 0.37 0.39 0.43 0.49 0.57 0.76 0.81 0.72 0.90 0.94 0.95 0.94 0.92 0.94 0.98 1.02 0.99 1.09 1.06 0.97 0.90 0.89
0.07 0.10 0.09 0.09 0.10 0.10 0.11 0.14 0.17 0.20 0.24 0.32 0.38 0.41 0.41 0.38 0.32 0.28 0.34 0.40 0.40 0.39 0.38 0.39 0.41 0.44 0.53 0.62 0.60 0.74 0.88 0.98 0.97 0.88 0.89 0.95 0.99 1.18 1.21 1.12 1.11 1.04 0.98
0.02 0.03 0.03 0.03 0.03 0.03 0.03 0.03 0.05 0.10 0.13 0.20 0.25 0.29 0.32 0.36 0.39 0.47 0.55 0.56 0.52 0.46 0.42 0.39 0.38 0.40 0.43 0.56 0.45 0.57 0.74 0.91 1.00 0.94 0.91 1.06 1.03 1.04 1.00 0.96 1.15 1.13 1.03
0.01 0.01 0.01 0.01 0.01 0.00 0.00 0.01 0.02 0.02 0.03 0.04 0.10 0.19 0.30 0.36 0.45 0.57 0.59 0.58 0.53 0.44 0.40 0.38 0.36 0.36 0.45 0.60 0.54 0.61 0.71 0.83 0.92 0.95 0.97 0.95 1.03 0.86 0.81 0.86 1.01 1.15 1.09
0.01 0.00 0.00 0.00 0.00 0.00 0.00 0.00 0.00 0.01 0.01 0.03 0.08 0.13 0.21 0.30 0.43 0.52 0.51 0.50 0.49 0.46 0.42 0.43 0.40 0.42 0.53 0.60 0.61 0.61 0.66 0.74 0.81 0.84 0.76 0.75 0.83 0.69 0.64 0.62 0.76 0.93 0.95
0.01 0.00 0.00 0.00 0.00 0.00 0.00 0.00 0.00 0.00 0.00 0.01 0.03 0.06 0.12 0.23 0.37 0.40 0.40 0.43 0.45 0.44 0.43 0.42 0.40 0.39 0.47 0.57 0.67 0.57 0.50 0.49 0.57 0.64 0.63 0.56 0.53 0.53 0.49 0.52 0.62 0.68 0.82
0.01 0.00 0.00 0.00 0.00 0.00 0.00 0.00 0.00 0.00 0.00 0.00 0.01 0.01 0.02 0.05 0.11 0.16 0.20 0.26 0.32 0.33 0.32 0.35 0.39 0.42 0.42 0.43 0.48 0.51 0.48 0.42 0.42 0.42 0.36 0.35 0.38 0.44 0.46 0.47 0.49 0.55 0.76
0.01 0.00 0.00 0.00 0.00 0.00 0.00 0.00 0.00 0.00 0.00 0.00 0.00 0.01 0.02 0.04 0.04 0.07 0.10 0.13 0.16 0.19 0.25 0.31 0.34 0.35 0.39 0.39 0.42 0.44 0.44 0.49 0.53 0.55 0.47 0.40 0.39 0.40 0.44 0.47 0.52 0.64 0.75
0.01 0.01 0.01 0.00 0.00 0.00 0.00 0.00 0.00 0.00 0.00 0.00 0.00 0.00 0.01 0.02 0.02 0.03 0.04 0.06 0.07 0.10 0.12 0.15 0.18 0.19 0.25 0.32 0.35 0.38 0.40 0.43 0.49 0.54 0.55 0.54 0.56 0.56 0.55 0.53 0.50 0.51 0.60

GEFSMW_prec_meanprecacc_162.txt.gz
Total_Precipitation_Accumulation
0.26 0.23 0.21 0.24 0.25 0.28 0.32 0.38 0.54 0.70 0.86 0.99 1.13 1.38 1.54 1.64 1.63 1.63 1.70 1.62 1.44 1.52 1.64 1.60 1.82 1.89 1.86 1.86 1.80 1.92 1.94 1.67 1.50 1.75 1.73 1.33 1.06 0.94 0.95 1.00 1.03 1.07 1.07
0.17 0.17 0.14 0.16 0.16 0.19 0.23 0.30 0.44 0.68 0.92 1.15 1.33 1.52 1.84 2.00 2.00 2.06 2.01 1.96 1.85 1.87 1.79 1.87 2.08 2.13 2.23 2.32 2.16 2.29 2.35 2.03 1.74 2.11 2.52 2.02 1.61 1.06 0.86 0.95 1.04 1.15 1.19
0.15 0.16 0.13 0.12 0.11 0.12 0.16 0.22 0.35 0.57 0.88 1.19 1.45 1.64 1.88 2.14 2.24 2.15 2.10 2.13 2.21 2.26 2.15 2.11 2.23 2.25 2.32 2.51 2.55 2.50 2.57 2.48 2.17 2.13 2.54 2.39 2.06 1.64 1.08 0.95 1.04 1.18 1.27
0.17 0.16 0.12 0.11 0.11 0.13 0.16 0.20 0.34 0.49 0.72 0.99 1.32 1.57 1.84 2.15 2.22 2.20 2.17 2.21 2.33 2.42 2.38 2.33 2.39 2.39 2.35 2.47 2.56 2.54 2.74 2.89 2.61 2.35 2.12 2.03 2.03 2.02 1.57 1.15 1.09 1.26 1.33
0.20 0.18 0.15 0.14 0.17 0.19 0.20 0.27 0.40 0.54 0.74 0.98 1.30 1.63 1.82 1.99 2.19 2.20 2.12 2.05 2.12 2.14 2.12 2.24 2.39 2.41 2.38 2.39 2.58 2.69 2.86 2.84 2.75 2.59 2.46 2.26 2.07 1.73 1.79 1.66 1.40 1.39 1.29
0.19 0.22 0.26 0.26 0.26 0.29 0.33 0.40 0.52 0.72 0.87 0.97 1.12 1.29 1.50 1.78 1.92 2.02 2.06 2.07 2.07 1.95 1.87 1.98 2.09 2.18 2.23 2.21 2.27 2.43 2.57 2.73 2.88 2.80 2.61 2.48 2.35 2.14 2.01 1.74 1.58 1.65 1.48
0.30 0.37 0.47 0.43 0.41 0.44 0.53 0.59 0.65 0.74 0.79 0.79 0.87 1.00 1.16 1.38 1.52 1.61 1.81 1.88 1.92 1.86 1.81 1.79 1.87 1.95 1.99 2.09 2.26 2.25 2.28 2.46 2.65 2.64 2.56 2.54 2.32 2.20 2.24 2.07 1.73 1.64 1.53
0.42 0.57 0.68 0.72 0.67 0.65 0.67 0.65 0.65 0.61 0.62 0.66 0.73 0.81 0.88 1.02 1.13 1.21 1.37 1.50 1.50 1.48 1.47 1.53 1.63 1.78 1.88 1.98 2.12 2.16 2.12 2.20 2.26 2.28 2.39 2.45 2.34 2.14 2.08 2.10 2.16 1.91 1.66
0.58 0.74 0.87 0.94 0.90 0.81 0.74 0.70 0.70 0.67 0.59 0.61 0.69 0.76 0.81 0.82 0.85 0.89 0.89 0.97 1.06 1.09 1.14 1.21 1.35 1.55 1.69 1.75 1.86 2.00 1.99 2.05 2.05 2.11 2.17 2.18 2.23 2.08 1.93 1.89 1.97 2.07 1.85
0.81 0.92 0.99 0.98 0.97 1.02 0.96 0.79 0.72 0.73 0.67 0.74 0.75 0.73 0.71 0.70 0.68 0.72 0.77 0.78 0.87 0.98 1.08 1.09 1.17 1.30 1.40 1.50 1.68 1.82 1.90 1.93 1.90 1.88 1.96 2.00 2.06 2.06 2.03 1.99 1.97 1.93 1.88
1.00 1.02 1.09 1.02 0.90 0.90 0.88 0.86 0.81 0.75 0.76 0.81 0.81 0.71 0.68 0.68 0.68 0.65 0.68 0.76 0.85 0.95 1.01 1.07 1.11 1.15 1.25 1.30 1.42 1.57 1.71 1.73 1.74 1.65 1.69 1.80 1.86 2.03 2.06 2.02 1.97 1.94 1.86
0.95 0.98 1.05 0.97 0.82 0.78 0.69 0.72 0.80 0.81 0.87 0.88 0.81 0.72 0.72 0.75 0.80 0.78 0.70 0.71 0.77 0.79 0.90 1.04 1.04 1.05 1.10 1.19 1.30 1.40 1.46 1.55 1.52 1.43 1.45 1.57 1.64 1.77 1.90 2.00 1.91 1.90 1.85
0.74 0.73 0.74 0.81 0.76 0.73 0.65 0.71 0.77 0.82 0.86 0.88 0.86 0.77 0.67 0.70 0.75 0.76 0.68 0.66 0.70 0.74 0.88 1.02 1.14 1.07 0.97 1.07 1.18 1.23 1.25 1.26 1.22 1.21 1.24 1.29 1.37 1.50 1.62 1.73 1.82 1.83 1.77
0.53 0.51 0.47 0.53 0.55 0.58 0.63 0.67 0.78 0.90 0.95 0.93 0.86 0.83 0.77 0.79 0.74 0.64 0.62 0.64 0.63 0.61 0.68 0.83 0.94 0.99 0.95 0.92 0.93 0.97 1.13 1.13 1.05 0.97 0.96 0.98 1.02 1.14 1.28 1.39 1.54 1.70 1.82
0.38 0.36 0.33 0.33 0.35 0.38 0.46 0.53 0.67 0.82 0.95 0.99 0.94 0.86 0.81 0.71 0.64 0.58 0.51 0.52 0.48 0.48 0.54 0.70 0.88 0.94 0.94 0.98 0.97 0.90 0.93 0.99 1.01 0.95 0.87 0.80 0.79 0.87 0.97 1.08 1.34 1.54 1.69
0.27 0.24 0.24 0.22 0.24 0.30 0.36 0.37 0.49 0.64 0.75 0.81 0.82 0.83 0.79 0.63 0.55 0.49 0.42 0.40 0.41 0.42 0.45 0.53 0.69 0.86 0.84 0.99 1.04 0.98 0.90 0.90 0.90 0.90 0.91 0.90 0.85 0.74 0.69 0.76 0.92 1.15 1.36
0.24 0.21 0.20 0.21 0.23 0.30 0.32 0.33 0.42 0.53 0.58 0.62 0.66 0.68 0.64 0.51 0.45 0.36 0.32 0.35 0.36 0.38 0.41 0.47 0.59 0.74 0.89 0.92 0.83 0.92 0.93 0.90 0.90 0.87 0.87 0.91 0.90 0.94 0.84 0.77 0.75 0.78 0.96
0.16 0.21 0.18 0.17 0.19 0.24 0.29 0.37 0.40 0.42 0.43 0.47 0.50 0.49 0.49 0.44 0.37 0.30 0.29 0.31 0.34 0.37 0.39 0.43 0.49 0.57 0.76 0.81 0.72 0.90 0.94 0.95 0.94 0.92 0.94 0.98 1.02 0.99 1.09 1.06 0.97 0.90 0.89
0.07 0.10 0.09 0.09 0.10 0.10 0.11 0.14 0.17 0.20 0.24 0.32 0.38 0.42 0.42 0.38 0.33 0.28 0.35 0.40 0.40 0.39 0.38 0.39 0.41 0.44 0.53 0.62 0.60 0.74 0.88 0.98 0.97 0.88 0.90 0.95 0.99 1.18 1.21 1.12 1.11 1.04 0.98
0.03 0.03 0.03 0.03 0.03 0.03 0.03 0.03 0.05 0.10 0.13 0.20 0.25 0.30 0.33 0.36 0.39 0.47 0.55 0.56 0.53 0.46 0.42 0.39 0.38 0.40 0.43 0.56 0.45 0.57 0.74 0.91 1.00 0.94 0.91 1.06 1.03 1.05 1.00 0.96 1.15 1.13 1.03
0.01 0.01 0.01 0.01 0.01 0.00 0.00 0.01 0.02 0.02 0.03 0.05 0.10 0.19 0.31 0.37 0.46 0.58 0.60 0.59 0.53 0.44 0.40 0.38 0.36 0.36 0.45 0.60 0.54 0.61 0.71 0.83 0.92 0.95 0.97 0.95 1.03 0.86 0.81 0.86 1.01 1.16 1.10
0.01 0.01 0.01 0.00 0.00 0.00 0.00 0.00 0.00 0.01 0.01 0.03 0.08 0.13 0.21 0.30 0.44 0.53 0.52 0.50 0.49 0.46 0.43 0.43 0.40 0.42 0.53 0.61 0.61 0.61 0.66 0.74 0.81 0.84 0.76 0.75 0.83 0.69 0.64 0.63 0.76 0.94 0.96
0.01 0.00 0.00 0.00 0.00 0.00 0.00 0.00 0.00 0.00 0.01 0.01 0.03 0.06 0.12 0.23 0.37 0.41 0.40 0.43 0.45 0.44 0.43 0.42 0.40 0.39 0.47 0.57 0.68 0.58 0.51 0.49 0.58 0.64 0.63 0.56 0.53 0.53 0.49 0.52 0.62 0.69 0.82
0.01 0.00 0.00 0.00 0.00 0.00 0.00 0.00 0.00 0.00 0.00 0.00 0.01 0.01 0.03 0.06 0.11 0.16 0.21 0.27 0.32 0.33 0.32 0.35 0.39 0.42 0.42 0.43 0.48 0.51 0.48 0.42 0.43 0.43 0.36 0.35 0.38 0.44 0.47 0.48 0.50 0.56 0.77
0.01 0.00 0.00 0.00 0.00 0.00 0.00 0.00 0.00 0.00 0.00 0.00 0.00 0.01 0.03 0.04 0.05 0.07 0.10 0.14 0.16 0.20 0.25 0.31 0.34 0.35 0.39 0.39 0.42 0.44 0.44 0.49 0.53 0.55 0.47 0.41 0.39 0.41 0.44 0.47 0.53 0.64 0.75
0.01 0.01 0.01 0.00 0.00 0.00 0.00 0.00 0.00 0.00 0.00 0.00 0.00 0.00 0.01 0.02 0.02 0.04 0.05 0.06 0.08 0.10 0.12 0.15 0.18 0.19 0.25 0.32 0.35 0.38 0.40 0.43 0.49 0.54 0.55 0.54 0.56 0.56 0.55 0.54 0.51 0.52 0.60